Location: Bushrod
(6.3500°N, 10.7833°W)
Time: 05:54:23
(UTC+00:00)

Cosmos 1544 - Pass Details

Date: 17 September 2019
Orbit: 475 x 491 km, 82.5° (Epoch: 17 October)

Event Time Altitude Azimuth Distance (km) Brightness Sun altitude
Rises 19:27:37 0° 180° (S) 2,521 6.7 -12.2°
Reaches altitude 10° 19:29:43 10° 177° (S) 1,640 5.7 -12.7°
Maximum altitude 19:33:16 68° 94° (E) 512 2.9 -13.6°
Drops below altitude 10° 19:36:49 10° 10° (N) 1,634 5.7 -14.4°
Sets 19:38:54 0° 8° (N) 2,509 6.7 -15.0°
